This demonstration page uses our WeatherBlox Daily Observations layout. Learn more.

Left ArrowRight Arrow

34.02893, -84.19858

Hourly Observations for February 18, 2020

Temp ( °F °C ) Dew Point ( °F °C ) Humidity (%) Winds ( mph kmh ) Pressure ( in mb ) Visibility ( mi km ) Precip ( " mm )
12:53 am 00:53 Cloudy with Mist and Fog 50 10 50 10 100 100 VRB 3 6 30.17 1022 4 6 0.00 0.00
1:18 am 01:18 Cloudy with Mist and Fog 50 10 50 10 100 100 ESE 3 6 30.17 1022 3 4 0.00 0.00
1:38 am 01:38 Cloudy with Mist and Fog 50 10 50 10 100 100 Calm 30.17 1022 2 3 0.00 0.00
1:53 am 01:53 Cloudy with Mist and Fog 50 10 50 10 100 100 ESE 5 7 30.16 1021 1 2 0.00 0.00
2:53 am 02:53 Cloudy with Mist and Fog 51 10.6 51 10.6 100 100 Calm 30.15 1021 1 2 0.00 0.00
3:21 am 03:21 Cloudy with Mist and Fog 51 10.6 51 10.6 100 100 E 3 6 30.14 1021 1 1 0.00 0.00
3:46 am 03:46 Mostly Cloudy with Mist and Fog 51 10.6 51 10.6 100 100 Calm 30.14 1021 1 2 0.00 0.00
3:53 am 03:53 Cloudy with Mist and Fog 51 10.6 51 10.6 100 100 VRB 3 6 30.14 1021 1 2 0.00 0.00
4:43 am 04:43 Mostly Cloudy with Mist and Fog 51 10.6 51 10.6 100 100 Calm 30.16 1021 1 1 0.00 0.00
4:53 am 04:53 Mostly Cloudy with Light Rain 51 10.6 51 10.6 100 100 VRB 3 6 30.15 1021 1 1 0.02 0.51
5:03 am 05:03 Cloudy with Rain 51 10.6 51 10.6 100 100 NE 3 6 30.15 1021 1 2 0.02 0.51
5:21 am 05:21 Cloudy with Light Rain 51 10.6 51 10.6 100 100 VRB 3 6 30.15 1021 3 5 0.07 1.78
5:28 am 05:28 Cloudy with Light Rain 51 10.6 51 10.6 100 100 Calm 30.15 1021 5 8 0.07 1.78
5:53 am 05:53 Cloudy with Light Rain 52 11.1 52 11.1 100 100 Calm 30.15 1021 6 10 0.08 2.03
6:53 am 06:53 Cloudy with Light Rain 52 11.1 52 11.1 100 100 VRB 3 6 30.14 1021 5 8 0.04 1.02
7:53 am 07:53 Cloudy 53 11.7 53 11.7 100 100 Calm 30.15 1021 8 13 0.01 0.25
8:39 am 08:39 Cloudy with Light Rain 53 11.7 53 11.7 100 100 ESE 3 6 30.16 1021 1 2 0.00 0.00
8:53 am 08:53 Cloudy with Light Rain 53 11.7 53 11.7 100 100 Calm 30.17 1022 1 2 0.01 0.25
9:53 am 09:53 Cloudy with Light Rain 53 11.7 53 11.7 100 100 Calm 30.17 1022 1 2 0.03 0.76
10:00 am 10:00 Cloudy with Rain 53 11.7 53 11.7 100 100 VRB 3 6 30.16 1021 2 3 0.02 0.51
10:53 am 10:53 Cloudy with Light Rain 54 12.2 54 12.2 100 100 ESE 3 6 30.16 1021 2 3 0.09 2.29
11:53 am 11:53 Cloudy with Light Rain 55 12.8 55 12.8 100 100 Calm 30.16 1021 2 3 0.06 1.52
12:53 pm 12:53 Cloudy with Light Rain 56 13.3 56 13.3 100 100 Calm 30.13 1020 2 3 0.09 2.29
12:55 pm 12:55 Cloudy with Light Rain 56 13.3 56 13.3 100 100 Calm 30.12 1020 4 6 0.00 0.00
1:26 pm 13:26 Cloudy with Mist and Fog 57 13.9 56 13.3 96 96 Calm 30.10 1019 6 10 0.00 0.00
1:38 pm 13:38 Cloudy with Mist and Fog 57 13.9 56 13.3 96 96 SE 3 6 30.10 1019 6 10 0.01 0.25
1:53 pm 13:53 Cloudy with Light Rain 57 13.9 56 13.3 96 96 Calm 30.09 1019 6 10 0.01 0.25
2:53 pm 14:53 Cloudy with Mist and Fog 58 14.4 58 14.4 100 100 SSE 5 7 30.06 1018 4 6 0.02 0.51
3:00 pm 15:00 Cloudy with Light Rain 58 14.4 58 14.4 100 100 SSE 5 7 30.05 1018 1 2 0.00 0.00
3:53 pm 15:53 Cloudy with Light Rain 58 14.4 58 14.4 100 100 NNE 5 7 30.05 1018 1 2 0.01 0.25
3:55 pm 15:55 Cloudy with Light Rain 58 14.4 58 14.4 100 100 NNE 3 6 30.05 1018 3 4 0.01 0.25
4:04 pm 16:04 Cloudy with Heavy Rain 58 14.4 58 14.4 100 100 N 7 11 30.05 1018 1 2 0.11 2.79
4:13 pm 16:13 Cloudy with Light Rain 58 14.4 58 14.4 100 100 N 13 20 30.06 1018 3 5 0.12 3.05
4:16 pm 16:16 Cloudy with Light Rain 57 13.9 57 13.9 100 100 N 12 19 30.06 1018 2 3 0.20 5.08
4:23 pm 16:23 Cloudy with Rain 56 13.3 56 13.3 100 100 NNE 9 15 30.06 1018 1 2 0.26 6.60
4:28 pm 16:28 Cloudy with Light Rain 56 13.3 56 13.3 100 100 NE 8 13 30.06 1018 3 4 0.26 6.60
4:32 pm 16:32 Cloudy with Light Rain 56 13.3 56 13.3 100 100 NE 6 9 30.06 1018 5 8 0.26 6.60
4:39 pm 16:39 Cloudy with Heavy Rain 56 13.3 56 13.3 100 100 VRB 6 9 30.06 1018 1 2 0.38 9.65
4:46 pm 16:46 Cloudy with Light Rain 56 13.3 55 12.8 97 97 VRB 5 7 30.06 1018 1 2 0.41 10.41
4:53 pm 16:53 Cloudy with Rain 56 13.3 55 12.8 97 97 NNE 6 9 30.07 1018 3 5 0.43 10.92
5:22 pm 17:22 Cloudy with Heavy Rain 56 13.3 55 12.8 97 97 VRB 3 6 30.07 1018 2 3 0.09 2.29
5:38 pm 17:38 Cloudy with Rain 56 13.3 56 13.3 100 100 NW 6 9 30.09 1019 2 2 0.18 4.57
5:51 pm 17:51 Cloudy with Rain 55 13 55 13 100 100 VRB 3 6 30.08 1019 1 2 0.27 6.86
5:53 pm 17:53 Cloudy with Rain 56 13.3 56 13.3 100 100 Calm 30.08 1019 1 2 0.28 7.11
6:11 pm 18:11 Cloudy with Light Rain 55 12.8 55 12.8 100 100 Calm 30.09 1019 3 5 0.09 2.29
6:53 pm 18:53 Cloudy with Rain 56 13.3 55 12.8 97 97 NNE 5 7 30.08 1019 4 6 0.13 3.30
6:55 pm 18:55 Cloudy with Rain 56 13.3 55 12.8 97 97 NNE 3 6 30.08 1019 3 5 0.01 0.25
7:31 pm 19:31 Cloudy with Rain 56 13.3 56 13.3 100 100 Calm 30.09 1019 3 4 0.14 3.56
7:38 pm 19:38 Cloudy with Rain 56 13.3 56 13.3 100 100 Calm 30.09 1019 3 5 0.16 4.06
7:53 pm 19:53 Cloudy with Rain 56 13.3 56 13.3 100 100 Calm 30.09 1019 3 5 0.21 5.33
7:59 pm 19:59 Cloudy with Rain 56 13.3 56 13.3 100 100 Calm 30.09 1019 2 3 0.02 0.51
8:26 pm 20:26 Cloudy with Light Rain 56 13.3 56 13.3 100 100 SSE 3 6 30.09 1019 2 3 0.05 1.27
8:53 pm 20:53 Cloudy with Rain 56 13.3 55 12.8 97 97 SSE 3 6 30.09 1019 2 3 0.09 2.29
9:53 pm 21:53 Cloudy with Light Rain 57 13.9 56 13.3 96 96 Calm 30.09 1019 2 3 0.01 0.25
10:00 pm 22:00 Cloudy with Light Rain 57 13.9 56 13.3 96 96 Calm 30.09 1019 4 6 0.00 0.00
10:26 pm 22:26 Cloudy with Light Rain 57 13.9 57 13.9 100 100 WSW 3 6 30.10 1019 8 13 0.02 0.51
10:39 pm 22:39 Cloudy with Light Rain 56 13.3 56 13.3 100 100 W 3 6 30.11 1020 9 14 0.02 0.51
10:53 pm 22:53 Cloudy with Light Rain 56 13.3 56 13.3 100 100 NW 5 7 30.11 1020 6 10 0.03 0.76
11:53 pm 23:53 Cloudy with Light Rain 57 13.9 57 13.9 100 100 Calm 30.11 1020 5 8 0.04 1.02

Powered by AerisWeather